DECAYED

COSMOS 2251 DEB, 37538 (Decayed)

Orbit data source: Space-Track

COSMOS 2251 DEB, 37538 was space debris in LEO originally from a launch on Wed, 16 Jun 1993 UTC launched from the Plesetsk Missile And Space Complex (PKMTR). The debris from Iridium 33, an American commercial communications satellite, has been tracked extensively since its accidental collision with the defunct Russian satellite Cosmos 2251 in 2009. This event, occurring at high speed in low Earth orbit (LEO), generated thousands of pieces of space debris, significantly increasing the risk of further collisions. The Iridium 33 debris cloud has impacted space traffic management and orbital debris mitigation strategies, making it a subject of ongoing study in space situational awareness.

Loading next visibility...
Identifier
37538, 1993-036BNT
Orbit
Decayed
Country
Flag of CISCIS
Related business
Manufacturer
Unknown
Mission
Decayed spacecraft
Bus & Motor
Unknown
Mass
Unknown
Launch date (UTC)
1993-06-16 (33 years ago)
Launch vehicle
Unknown
Launch site
Plesetsk Missile And Space Complex (PKMTR)
Object type
Payload
Rocket body
Debris
Shape & HBR
Unknown shape, 0.1 m
Radar Cross Section
Small (<0.1 m²)

Expand to show TLE details & history
Last TLE update: 1 year ago

TLE from 1 year ago
0 COSMOS 2251 DEB
1 37538U 93036BNT 25123.48833163  .02246990  00000-0  11177-1 0  9996
2 37538  73.9669 275.4695 0009318 323.0804  36.9781 15.78748733799571
Epoch: 2025-05-03T11:43Z
TLE epoch observation values (Epoch: 2025-05-03T11:43:11.852Z)
Latitude
-0.00006°
Longitude
-121.95977°
Altitude
331.767 km
Speed
7.712 km/s
True Right ascension
18h 21m 52s
True Declination
0° 00' 00"
Sunlit
Object was in full shadow at epoch
Visualization orbit readout
Latitude
Unknown
Longitude
Unknown
Altitude
Unknown
Speed
Unknown
Apparent Right ascension
Unknown
Apparent Declination
Unknown
Sunlit
N/A
Visualization observer readout
Local Sidereal Time
06:16:53
Azimuth
Unknown
Elevation
Unknown
Doppler factor
Unknown
Orbital elements
Apogee altitude
337.712 km
Perigee altitude
325.208 km
Semi-major axis
6,709.597 km
Eccentricity
0.00093
Inclination
73.9669°
RAAN
275.4695°
Arg. of periapsis
323.0804°
True anomaly
37.04239°
Mean anomaly
36.9781°
Eccentric anomaly
37.01024°
Mean motion
3.9491 °/min
Orbital period
91.16 mins
BSTAR
0.011177

Documentation

Showing up to 5 results
|